Regional Weather Roundup
Issued by NWS Green Bay, WI

Home | Current Version | Previous Version | Graphics & Text | Print | Product List | Glossary Off
Versions: 1 2 3 4 5 6 7 8 9 10 11 12 13 14 15 16 17 18 19 20 21 22 23 24 25 26 27 28 29 30 31 32 33 34 35 36 37 38 39 40 41 42 43 44 45 46 47 48 49 50

000
ASUS43 KGRB 270610
RWRGRB

NORTH-CENTRAL AND NORTHEAST WISCONSIN REGIONAL WEATHER ROUNDUP
NATIONAL WEATHER SERVICE GREEN BAY WI
100 AM CDT WED AUG 27 2014

WIZ005-009-010>012-018-019-270700-
NORTH CENTRAL WISCONSIN

CITY           SKY/WX    TMP DP  RH WIND       PRES   REMARKS
IRONWOOD       NOT AVBL
MANITOWISH WTR   N/A     53  53 100 CALM      30.18S
ARBOR VITAE    RAIN      57  55  92 CALM      30.18S
EAGLE RIVER      N/A     51  51 100 CALM      30.17S
LAND O LAKES     N/A     49  49  99 CALM      30.19R
RHINELANDER    MOCLDY    55  53  93 CALM      30.18S
PHILLIPS       CLOUDY    55  54  95 CALM      30.17S
ANTIGO           N/A     55  53  91 CALM      30.17S
TOMAHAWK         N/A     52  50  95 CALM      30.18S
MERRILL          N/A     56  54  94 CALM      30.17S
$$

WIZ013-073-270700-
NORTHEAST WISCONSIN

CITY           SKY/WX    TMP DP  RH WIND       PRES   REMARKS
IRON MOUNTAIN    N/A     51  48  89 CALM      30.15R
MARINETTE        N/A     57  50  77 NE3       30.14R
OCONTO           N/A     59  55  85 NE5       30.14R
$$

WIZ017-030-035>037-045-270700-
CENTRAL WISCONSIN

CITY           SKY/WX    TMP DP  RH WIND       PRES   REMARKS
MEDFORD          N/A     56  55  94 CALM      30.19R
WAUSAU           N/A     59  55  87 NW3       30.15S
MOSINEE          N/A     59  55  88 N5        30.17S
MARSHFIELD       N/A     59  55  87 N8        30.17R
WISC RAPIDS      N/A     62  55  77 NW3       30.17S
STEVENS POINT    N/A     58  54  86 CALM      30.17R
WAUPACA          N/A     64  58  79 NW3       30.15S
SHAWANO          N/A     63  54  73 NE7       30.16R
CLINTONVILLE     N/A     61  54  77 N5        30.15R
$$

WIZ038-039-048-051-270700-
FOX VALLEY

CITY           SKY/WX    TMP DP  RH WIND       PRES   REMARKS
NWS GREEN BAY    N/A     61  56  83 N8        30.15R
APPLETON         N/A     61  55  82 NW7       30.15R
OSHKOSH        LGT RAIN  64  58  80 NW6       30.13S
FOND DU LAC      N/A     63  56  78 NW5       30.14S
$$

WIZ022-050-052-270700-
EAST CENTRAL WISCONSIN

CITY           SKY/WX    TMP DP  RH WIND       PRES   REMARKS
STURGEON BAY   MOCLDY    61  55  82 NE12      30.14R
MANITOWOC        N/A     62  58  86 CALM      30.13S
SHEBOYGAN        N/A     61  58  90 W3        30.13S
$$

LMZ563-521-522-541>543-270700-
LAKESHORE

STATION/POSITION TIME  TEMP    WIND        PRES    VSBY  WAVE
                       AIR SEA DIR/SP/G                  HT/PER
                 (UTC) (F)     (DEG/KT/KT) (MB)    (MI)  (FT/S)
SHEBOYGAN LKSHOR 0600   66 65  300/  6/  7 1020.2S
KEWAUNEE LKSHORE 0600   61     330/  4/  5 1019.1R
NORTHPORT PIER   0600   63     360/  7/  9 1020.7R
N MID LAKE BUOY  0600   62 65  360/ 14/ 16 1019.9S         2/ 4
S GREEN BAY BUOY 0600   66     VRB 17      1021.2R
SISTER BAY LKSHO 0600   62      30/  6/  9   N/A
CHAMBERS ISLAND  0600   65     360/ 12/ 15 1020.7S
MENOMINEE LKSHOR 0600   63      10/ 12/ 15 1021.0S
$$


USA.gov is the U.S. government's official web portal to all federal, state and local government web resources and services.